Weather History for Sauk Centre, MN

Change the Weather History Date:

Tuesday, September 3, 2013

  Actual Average (KGHW) Record (KGHW)
Temperature  
Mean Temperature 60 °F -  
Max Temperature 78 °F 76 °F 95 °F (2007)
Min Temperature 42 °F 52 °F 33 °F (1974)
Degree Days  
Heating Degree Days 5    
Growing Degree Days 10 (Base 50)    
Moisture  
Dew Point 53 °F    
Average Humidity 77    
Maximum Humidity 99    
Minimum Humidity 44    
Precipitation  
Precipitation 0.00 in - - ()
Sea Level Pressure  
Sea Level Pressure 30.04 in    
Wind  
Wind Speed 2 mph (SSW)    
Max Wind Speed 9 mph    
Max Gust Speed 17 mph    
Visibility 10 miles    
Events Fog    
Averages and records for this station are not official NWS values.
T = Trace of Precipitation, MM = Missing Value Source: NWS Daily Summary

Daily Weather History Graph

Daily Weather History Graph

Search for Another Location

Airport:

Trip Planner

Search our weather history database for the weather conditions in past years. The results will help you decide how hot, cold, wet, or windy it might be!

Date:

Astronomy

Sep. 03, 2013 Rise Set
Actual Time 6:43 AM CDT 7:53 PM CDT
Civil Twilight 6:13 AM CDT 8:23 PM CDT
Nautical Twilight 5:36 AM CDT 9:00 PM CDT
Astronomical Twilight 4:57 AM CDT 9:39 PM CDT
Moon 4:55 AM CDT (9/3) 6:42 PM CDT (9/3)
Length of Visible Light 14h 10m
Length of Day
13h 09m
Waning Crescent, 3% of the Moon is Illuminated
Sep 3
Waning Crescent
Sep 5
New
Sep 12
First Quarter
Sep 19
Full
Sep 26
Last Quarter

Hourly Weather History & Observations

Time (CDT) Temp. Windchill Dew Point Humidity Pressure Visibility Wind Dir Wind Speed Gust Speed Precip Events Conditions
12:12 AM 49.3 °F - 47.5 °F 94% 30.05 in 10.0 mi Calm Calm - N/A   Clear
12:32 AM 49.1 °F - 47.7 °F 95% 30.05 in 10.0 mi Calm Calm - N/A   Clear
12:52 AM 48.7 °F - 47.8 °F 97% 30.05 in 10.0 mi Calm Calm - N/A   Clear
1:12 AM 48.4 °F - 47.1 °F 95% 30.05 in 10.0 mi Calm Calm - N/A   Clear
1:32 AM 47.3 °F - 45.7 °F 94% 30.05 in 10.0 mi Calm Calm - N/A   Clear
1:52 AM 46.6 °F - 45.7 °F 97% 30.05 in 10.0 mi Calm Calm - N/A   Clear
2:12 AM 46.2 °F - 45.5 °F 97% 30.05 in 10.0 mi Calm Calm - N/A   Clear
2:32 AM 45.7 °F - 44.8 °F 97% 30.05 in 10.0 mi Calm Calm - N/A   Clear
2:52 AM 45.0 °F - 44.4 °F 98% 30.05 in 10.0 mi Calm Calm - N/A   Clear
3:12 AM 45.7 °F - 45.3 °F 99% 30.05 in 10.0 mi Calm Calm - N/A   Clear
3:32 AM 44.2 °F - 43.5 °F 97% 30.05 in 10.0 mi Calm Calm - N/A   Clear
3:51 AM 44.1 °F - 43.5 °F 98% 30.05 in 10.0 mi Calm Calm - N/A   Clear
4:12 AM 43.0 °F - 42.4 °F 98% 30.06 in 10.0 mi Calm Calm - N/A   Clear
4:32 AM 43.9 °F - 43.3 °F 98% 30.06 in 10.0 mi Calm Calm - N/A   Clear
4:52 AM 43.7 °F - 43.0 °F 97% 30.05 in 10.0 mi Calm Calm - N/A   Clear
5:12 AM 42.8 °F - 41.5 °F 95% 30.06 in 10.0 mi Calm Calm - N/A   Clear
5:32 AM 43.2 °F - 41.9 °F 95% 30.07 in 10.0 mi Calm Calm - N/A   Clear
5:52 AM 42.6 °F - 41.5 °F 96% 30.07 in 10.0 mi Calm Calm - N/A   Clear
6:12 AM 44.8 °F - 44.6 °F 99% 30.07 in 2.0 mi Calm Calm - N/A   Clear
6:32 AM 43.7 °F - 43.2 °F 98% 30.08 in 4.0 mi Calm Calm - N/A   Clear
6:52 AM 45.3 °F - 45.1 °F 99% 30.08 in 0.2 mi Calm Calm - N/A Fog Fog
7:12 AM 42.8 °F 41.1 °F 42.4 °F 99% 30.09 in 10.0 mi SSE 3.5 mph - N/A   Clear
7:32 AM 47.5 °F - 47.3 °F 99% 30.08 in 10.0 mi Calm Calm - N/A   Clear
7:52 AM 50.5 °F - 50.0 °F 98% 30.08 in 10.0 mi South 4.6 mph - N/A   Clear
8:12 AM 52.3 °F - 50.9 °F 95% 30.08 in 10.0 mi South 4.6 mph - N/A   Clear
8:32 AM 54.5 °F - 51.8 °F 91% 30.08 in 10.0 mi South 5.8 mph - N/A   Clear
8:52 AM 56.3 °F - 52.3 °F 87% 30.08 in 10.0 mi South 4.6 mph - N/A   Clear
9:12 AM 59.2 °F - 53.4 °F 81% 30.07 in 10.0 mi South 4.6 mph - N/A   Clear
9:32 AM 60.3 °F - 53.8 °F 79% 30.07 in 10.0 mi SSE 5.8 mph - N/A   Clear
9:52 AM 61.5 °F - 54.0 °F 76% 30.08 in 10.0 mi South 6.9 mph - N/A   Clear
10:12 AM 63.0 °F - 54.5 °F 74% 30.08 in 10.0 mi South 8.1 mph - N/A   Clear
10:32 AM 63.9 °F - 54.9 °F 72% 30.07 in 10.0 mi South 8.1 mph - N/A   Clear
10:52 AM 64.6 °F - 54.7 °F 70% 30.07 in 10.0 mi South 6.9 mph - N/A   Clear
11:12 AM 65.7 °F - 55.0 °F 69% 30.08 in 10.0 mi South 8.1 mph - N/A   Clear
11:32 AM 66.2 °F - 55.4 °F 68% 30.07 in 10.0 mi South 8.1 mph - N/A   Clear
11:52 AM 67.3 °F - 55.8 °F 66% 30.07 in 10.0 mi South 8.1 mph - N/A   Clear
12:12 PM 68.2 °F - 55.8 °F 64% 30.06 in 10.0 mi South 9.2 mph - N/A   Clear
12:32 PM 68.2 °F - 55.4 °F 64% 30.05 in 10.0 mi South 8.1 mph - N/A   Clear
12:52 PM 70.7 °F - 56.3 °F 60% 30.05 in 10.0 mi South 8.1 mph - N/A   Clear
1:12 PM 71.6 °F - 56.1 °F 58% 30.05 in 10.0 mi SSW 6.9 mph - N/A   Clear
1:32 PM 72.1 °F - 57.0 °F 59% 30.04 in 10.0 mi South 6.9 mph - N/A   Clear
1:52 PM 73.8 °F - 57.2 °F 56% 30.04 in 10.0 mi South 8.1 mph - N/A   Clear
2:12 PM 75.0 °F - 57.4 °F 54% 30.03 in 10.0 mi SSW 8.1 mph - N/A   Clear
2:32 PM 76.3 °F - 56.1 °F 50% 30.02 in 10.0 mi SW 9.2 mph - N/A   Clear
2:52 PM 77.5 °F - 55.2 °F 46% 30.02 in 10.0 mi South 6.9 mph 17.3 mph N/A   Clear
3:12 PM 77.5 °F - 54.9 °F 45% 30.02 in 10.0 mi SW 6.9 mph - N/A   Clear
3:32 PM 78.1 °F - 57.0 °F 48% 30.02 in 10.0 mi WSW 4.6 mph - N/A   Clear
3:52 PM 78.4 °F - 55.9 °F 46% 30.01 in 10.0 mi WSW 6.9 mph - N/A   Clear
4:12 PM 78.3 °F - 54.7 °F 44% 30.01 in 10.0 mi West 3.5 mph - N/A   Clear
4:32 PM 78.6 °F - 56.1 °F 46% 30.01 in 10.0 mi SSW 5.8 mph - N/A   Clear
4:36 PM 78.8 °F - 56.5 °F 46% 30.01 in 10.0 mi SSW 5.8 mph - N/A   Clear
5:05 PM 78.8 °F - 57.2 °F 47% 30.00 in 10.0 mi SSW 9.2 mph - N/A   Clear
5:25 PM 78.8 °F - 57.2 °F 47% 30.00 in 10.0 mi SW 6.9 mph - N/A   Clear
5:45 PM 78.8 °F - 57.2 °F 47% 30.01 in 10.0 mi SSW 5.8 mph - N/A   Clear
6:05 PM 77.0 °F - 57.2 °F 50% 30.01 in 10.0 mi SSW 5.8 mph - N/A   Clear
6:25 PM 77.0 °F - 59.0 °F 54% 30.00 in 10.0 mi SSW 6.9 mph - N/A   Clear
6:45 PM 75.2 °F - 59.0 °F 57% 30.00 in 10.0 mi SSW 5.8 mph - N/A   Clear
7:05 PM 75.2 °F - 59.0 °F 57% 30.01 in 10.0 mi SSW 4.6 mph - N/A   Clear
7:25 PM 71.6 °F - 59.0 °F 64% 30.00 in 10.0 mi SSW 4.6 mph - N/A   Clear
7:45 PM 69.8 °F - 59.0 °F 68% 30.00 in 10.0 mi South 4.6 mph - N/A   Clear
8:05 PM 68.0 °F - 59.0 °F 73% 30.00 in 10.0 mi South 4.6 mph - N/A   Clear
8:25 PM 66.2 °F - 59.0 °F 78% 30.01 in 10.0 mi SSW 5.8 mph - N/A   Clear
8:45 PM 66.2 °F - 59.0 °F 78% 30.02 in 10.0 mi Calm Calm - N/A   Clear
9:05 PM 62.6 °F - 59.0 °F 88% 30.02 in 10.0 mi South 3.5 mph - N/A   Clear
9:25 PM 62.6 °F - 59.0 °F 88% 30.02 in 10.0 mi South 3.5 mph - N/A   Clear
9:45 PM 60.8 °F - 57.2 °F 88% 30.02 in 10.0 mi Calm Calm - N/A   Clear
10:05 PM 62.6 °F - 59.0 °F 88% 30.02 in 10.0 mi Calm Calm - N/A   Clear
10:25 PM 60.8 °F - 57.2 °F 88% 30.02 in 10.0 mi Calm Calm - N/A   Clear
10:45 PM 60.8 °F - 57.2 °F 88% 30.02 in 10.0 mi Calm Calm - N/A   Clear
11:05 PM 62.6 °F - 57.2 °F 82% 30.02 in 10.0 mi Calm Calm - N/A   Clear
11:25 PM 60.8 °F - 57.2 °F 88% 30.02 in 10.0 mi Calm Calm - N/A   Clear
11:45 PM 60.8 °F - 57.2 °F 88% 30.02 in 10.0 mi Calm Calm - N/A   Clear